TimeEST,TemperatureF,Dew PointF,Humidity,Sea Level PressureIn,VisibilityMPH,Wind Direction,Wind SpeedMPH,Gust SpeedMPH,PrecipitationIn,Events,Conditions,WindDirDegrees,DateUTC
12:15 AM,64.4,64.4,100,29.99,10.0,SSW,8.1,-,N/A,,Clear,210,2013-01-17 05:15:00
12:35 AM,64.4,64.4,100,29.99,10.0,SSW,6.9,-,N/A,,Clear,210,2013-01-17 05:35:00
12:55 AM,64.4,64.4,100,29.99,10.0,SSW,8.1,-,N/A,,Clear,210,2013-01-17 05:55:00
1:15 AM,64.4,64.4,100,30.00,10.0,SSW,8.1,-,N/A,,Clear,210,2013-01-17 06:15:00
1:35 AM,62.6,62.6,100,29.99,10.0,SW,6.9,-,N/A,,Clear,220,2013-01-17 06:35:00
2:15 AM,62.6,62.6,100,30.00,10.0,SSW,5.8,-,N/A,,Clear,210,2013-01-17 07:15:00
2:35 AM,60.8,60.8,100,29.99,10.0,South,5.8,-,N/A,,Clear,190,2013-01-17 07:35:00
2:55 AM,60.8,60.8,100,29.99,10.0,SSW,4.6,-,N/A,,Clear,200,2013-01-17 07:55:00
3:15 AM,60.8,60.8,100,29.98,10.0,SSW,4.6,-,N/A,,Clear,210,2013-01-17 08:15:00
3:35 AM,60.8,60.8,100,29.98,10.0,SSW,5.8,-,N/A,,Clear,200,2013-01-17 08:35:00
3:55 AM,60.8,60.8,100,29.98,10.0,SSW,4.6,-,N/A,,Clear,210,2013-01-17 08:55:00
4:15 AM,60.8,60.8,100,29.98,10.0,SSW,5.8,-,N/A,,Clear,200,2013-01-17 09:15:00
4:35 AM,60.8,60.8,100,29.97,10.0,SSW,5.8,-,N/A,,Clear,200,2013-01-17 09:35:00
4:55 AM,60.8,60.8,100,29.97,10.0,South,5.8,-,N/A,,Clear,190,2013-01-17 09:55:00
5:15 AM,60.8,60.8,100,29.97,10.0,SSW,5.8,-,N/A,,Clear,200,2013-01-17 10:15:00
5:35 AM,60.8,60.8,100,29.97,10.0,SSW,4.6,-,N/A,,Clear,200,2013-01-17 10:35:00
5:55 AM,59.0,59.0,100,29.98,10.0,SSW,4.6,-,N/A,,Clear,210,2013-01-17 10:55:00
6:15 AM,59.0,59.0,100,29.98,10.0,SSW,4.6,-,N/A,,Clear,210,2013-01-17 11:15:00
6:35 AM,59.0,59.0,100,29.98,10.0,SW,4.6,-,N/A,,Clear,220,2013-01-17 11:35:00
6:55 AM,57.2,57.2,100,29.99,10.0,SSW,4.6,-,N/A,,Clear,210,2013-01-17 11:55:00
7:15 AM,57.2,57.2,100,29.99,10.0,SW,3.5,-,N/A,,Clear,220,2013-01-17 12:15:00
7:35 AM,57.2,57.2,100,30.00,10.0,SSW,3.5,-,N/A,,Clear,210,2013-01-17 12:35:00
7:55 AM,59.0,59.0,100,30.00,10.0,SSW,3.5,-,N/A,,Clear,210,2013-01-17 12:55:00
8:15 AM,60.8,60.8,100,29.99,10.0,Calm,Calm,-,N/A,,Clear,0,2013-01-17 13:15:00
8:35 AM,62.6,62.6,100,29.99,10.0,SSW,3.5,-,N/A,,Clear,210,2013-01-17 13:35:00
8:55 AM,64.4,62.6,94,29.99,10.0,SSW,4.6,-,N/A,,Clear,210,2013-01-17 13:55:00
9:15 AM,68.0,62.6,83,29.99,10.0,SSW,6.9,-,N/A,,Clear,210,2013-01-17 14:15:00
9:35 AM,69.8,62.6,78,29.99,10.0,SSW,5.8,-,N/A,,Clear,200,2013-01-17 14:35:00
9:55 AM,69.8,62.6,78,29.98,10.0,South,6.9,-,N/A,,Clear,190,2013-01-17 14:55:00
10:15 AM,71.6,62.6,73,29.98,10.0,SSW,9.2,-,N/A,,Clear,200,2013-01-17 15:15:00
10:35 AM,73.4,60.8,65,29.97,10.0,SSW,6.9,-,N/A,,Clear,210,2013-01-17 15:35:00
10:55 AM,73.4,60.8,65,29.95,10.0,SSW,10.4,-,N/A,,Clear,200,2013-01-17 15:55:00
11:15 AM,77.0,62.6,61,29.94,10.0,South,8.1,-,N/A,,Clear,170,2013-01-17 16:15:00
11:35 AM,77.0,60.8,57,29.93,10.0,SSE,10.4,-,N/A,,Clear,160,2013-01-17 16:35:00
11:55 AM,77.0,60.8,57,29.91,10.0,SSW,13.8,18.4,N/A,,Clear,200,2013-01-17 16:55:00
12:15 PM,77.0,60.8,57,29.88,10.0,South,10.4,19.6,N/A,,Clear,190,2013-01-17 17:15:00
12:35 PM,77.0,62.6,61,29.87,10.0,South,12.7,20.7,N/A,,Clear,180,2013-01-17 17:35:00
12:55 PM,75.2,62.6,65,29.86,10.0,SSE,10.4,18.4,N/A,,Clear,160,2013-01-17 17:55:00
1:15 PM,75.2,64.4,69,29.85,10.0,South,11.5,-,N/A,,Scattered Clouds,170,2013-01-17 18:15:00
1:35 PM,75.2,64.4,69,29.84,10.0,South,15.0,24.2,N/A,,Scattered Clouds,180,2013-01-17 18:35:00
1:55 PM,75.2,62.6,65,29.83,10.0,South,19.6,28.8,N/A,,Clear,190,2013-01-17 18:55:00
2:15 PM,75.2,62.6,65,29.82,10.0,South,17.3,21.9,N/A,,Scattered Clouds,180,2013-01-17 19:15:00
2:35 PM,75.2,62.6,65,29.81,10.0,SSW,13.8,26.5,N/A,,Scattered Clouds,200,2013-01-17 19:35:00
2:55 PM,75.2,62.6,65,29.80,10.0,South,15.0,25.3,N/A,,Scattered Clouds,180,2013-01-17 19:55:00
3:15 PM,73.4,60.8,65,29.79,10.0,South,16.1,28.8,N/A,,Scattered Clouds,190,2013-01-17 20:15:00
3:35 PM,73.4,62.6,69,29.78,10.0,South,19.6,28.8,N/A,,Clear,190,2013-01-17 20:35:00
3:55 PM,71.6,62.6,73,29.80,10.0,South,17.3,24.2,N/A,,Mostly Cloudy,190,2013-01-17 20:55:00
4:15 PM,71.6,62.6,73,29.78,10.0,South,17.3,21.9,N/A,,Overcast,180,2013-01-17 21:15:00
4:35 PM,71.6,62.6,73,29.78,10.0,SSW,15.0,21.9,N/A,,Mostly Cloudy,200,2013-01-17 21:35:00
4:55 PM,71.6,62.6,73,29.77,10.0,South,17.3,24.2,N/A,,Overcast,190,2013-01-17 21:55:00
5:15 PM,69.8,62.6,78,29.77,10.0,SSW,15.0,25.3,N/A,,Overcast,200,2013-01-17 22:15:00
5:35 PM,69.8,64.4,83,29.77,10.0,SSW,21.9,34.5,N/A,,Overcast,200,2013-01-17 22:35:00
5:55 PM,62.6,60.8,94,29.81,4.0,WSW,24.2,35.7,N/A,Rain,Light Rain,250,2013-01-17 22:55:00
6:15 PM,57.2,57.2,100,29.83,7.0,WSW,19.6,24.2,N/A,Rain,Rain,250,2013-01-17 23:15:00
6:35 PM,55.4,55.4,100,29.85,5.0,West,17.3,26.5,N/A,Rain,Rain,270,2013-01-17 23:35:00
6:55 PM,53.6,53.6,100,29.86,4.0,WSW,10.4,16.1,N/A,Rain,Rain,240,2013-01-17 23:55:00
7:15 PM,53.6,53.6,100,29.87,10.0,West,17.3,24.2,N/A,,Drizzle,270,2013-01-18 00:15:00
7:35 PM,51.8,51.8,100,29.88,10.0,West,20.7,29.9,N/A,,Overcast,260,2013-01-18 00:35:00
7:55 PM,50.0,50.0,100,29.90,10.0,West,17.3,28.8,N/A,,Overcast,270,2013-01-18 00:55:00
8:15 PM,50.0,48.2,94,29.92,10.0,West,12.7,18.4,N/A,,Mostly Cloudy,270,2013-01-18 01:15:00
8:35 PM,48.2,46.4,93,29.93,10.0,West,16.1,25.3,N/A,,Scattered Clouds,270,2013-01-18 01:35:00
9:15 PM,48.2,44.6,87,29.96,10.0,West,15.0,21.9,N/A,,Scattered Clouds,270,2013-01-18 02:15:00
9:35 PM,48.2,44.6,87,29.97,10.0,West,18.4,29.9,N/A,,Mostly Cloudy,270,2013-01-18 02:35:00
9:55 PM,50.0,44.6,82,29.98,10.0,West,15.0,23.0,N/A,,Overcast,270,2013-01-18 02:55:00
10:15 PM,50.0,42.8,76,29.99,10.0,West,12.7,24.2,N/A,,Overcast,280,2013-01-18 03:15:00
10:35 PM,48.2,41.0,76,30.00,10.0,WNW,11.5,25.3,N/A,,Mostly Cloudy,290,2013-01-18 03:35:00
10:55 PM,48.2,41.0,76,30.01,10.0,West,15.0,28.8,N/A,,Mostly Cloudy,280,2013-01-18 03:55:00